Find OneWeb SL0149

NORAD ID: 48058 Int'l Des: 2021-025 Owner: ONEWEBN Country: UK Constellation: oneweb operational
別名: ONEWEB-0149 spacetrack, celestrak
LEOCIRCULARPOLARONEWEB_TYPE

現在のビュー

3D地球を読み込み中...

About OneWeb SL0149

OneWeb SL0149 (NORAD 48058) is a oneweb constellation satellite launched Mar 25, 2021 by ONEWEBN of UK. It operates in LEO, CIRCULAR, POLAR, ONEWEB_TYPE orbit with a mass of 148.00 kg.

次回通過

Passes for default location (London). Set your location on the main map for personalized predictions.

高度履歴

Loading altitude history...

軌道要素

1 48058U 21025S 26265.13286511 -.00000315 00000-0 -89621-3 0 9993
2 48058 87.8913 300.9367 0001979 100.0566 260.0786 13.13469343266218
Epoch: Sep 22, 2026 • Age: 15 hours

現在のステータス

高度 1218.6 km
遠地点 / 近地点 N/A
速度 7.25 km/s
衛星直下点 58.82°N, 30.97°E
打ち上げ日 Mar 25, 2021
運用期間 5.4 years
タイプ internet

技術仕様

分類 Payload
質量 148.00 kg
乾燥質量 140.00 kg
長さ 1.30 m
直径 1.00 m
スパン 5.00 m
形状 ? Trapezoid+2 pan
製造者 ONEWUS
バスタイプ ARROW
フェーズステータス In Orbit
所有者/国 ONEWEBN/UK

Most Searched